EJU38QA HEGN-LFPG

Flight info

Callsign EJU38QA
Flight time N/A
Altitude 34000
Route HGD V608 NABED T55 KUNKI P751 MMA L613 TANSA DCT AKORO UL53 IXONI DCT VARDI DCT DIMIS DCT VAKSU DCT AMUGO DCT BAXON DCT TZO DCT PUNSA DCT UNKIR DCT GIVRI DCT TINIL
Aircraft A320/M-SDE2E3FGHIJ1RWXYZ/LB1

Departure

Time 2026-04-29 14:37
Airport Hurghada International Airport (HEGN)

Arrival

Time N/A
Airport Charles de Gaulle International Airport (LFPG)
Time Latitude Longitude Altitude Speed Heading
2026-04-29 14:10 27.18071 33.80589 56 ft 0 kts 65°
2026-04-29 14:27 27.18068 33.80582 51 ft 4 kts 66°
2026-04-29 14:27 27.18057 33.80554 56 ft 4 kts 68°
2026-04-29 14:27 27.18048 33.80525 52 ft 4 kts 72°
2026-04-29 14:28 27.18043 33.80470 58 ft 4 kts 134°
2026-04-29 14:28 27.18049 33.80464 56 ft 0 kts 166°
2026-04-29 14:29 27.18047 33.80465 58 ft 2 kts 166°
2026-04-29 14:30 27.17983 33.80484 54 ft 16 kts 165°
2026-04-29 14:30 27.17877 33.80498 50 ft 14 kts 204°
2026-04-29 14:30 27.17832 33.80411 52 ft 12 kts 254°
2026-04-29 14:30 27.17804 33.80322 49 ft 13 kts 234°
2026-04-29 14:31 27.17711 33.80313 55 ft 15 kts 165°
2026-04-29 14:31 27.17615 33.80340 55 ft 15 kts 166°
2026-04-29 14:31 27.17488 33.80380 52 ft 23 kts 166°
2026-04-29 14:31 27.17329 33.80428 51 ft 24 kts 166°
2026-04-29 14:32 27.17172 33.80472 50 ft 23 kts 166°
2026-04-29 14:32 27.17023 33.80515 49 ft 21 kts 166°
2026-04-29 14:32 27.16888 33.80554 48 ft 19 kts 166°
2026-04-29 14:32 27.16760 33.80592 47 ft 19 kts 166°
2026-04-29 14:33 27.16643 33.80628 48 ft 16 kts 164°
2026-04-29 14:33 27.16548 33.80657 46 ft 13 kts 165°
2026-04-29 14:33 27.16461 33.80682 46 ft 13 kts 165°
2026-04-29 14:33 27.16356 33.80714 43 ft 17 kts 165°
2026-04-29 14:34 27.16249 33.80745 43 ft 16 kts 165°
2026-04-29 14:34 27.16152 33.80737 39 ft 11 kts 233°
2026-04-29 14:34 27.16146 33.80716 40 ft 0 kts 253°
2026-04-29 14:35 27.16135 33.80672 38 ft 12 kts 260°
2026-04-29 14:35 27.16170 33.80598 41 ft 15 kts 334°
2026-04-29 14:36 27.16330 33.80550 43 ft 46 kts 346°
2026-04-29 14:36 27.16853 33.80397 45 ft 107 kts 345°
2026-04-29 14:36 27.17738 33.80133 51 ft 154 kts 345°
2026-04-29 14:36 27.18888 33.79804 282 ft 175 kts 347°
2026-04-29 14:37 27.20056 33.79445 960 ft 174 kts 346°
2026-04-29 14:37 27.21241 33.79048 1379 ft 185 kts 346°
2026-04-29 14:37 27.22545 33.78608 1528 ft 206 kts 345°
2026-04-29 14:37 27.23973 33.78128 1730 ft 226 kts 345°
2026-04-29 14:38 27.25555 33.77601 1944 ft 248 kts 342°
2026-04-29 14:38 27.27285 33.77025 2247 ft 267 kts 341°
2026-04-29 14:38 27.29068 33.76437 3088 ft 264 kts 343°
2026-04-29 14:38 27.30828 33.75864 3888 ft 264 kts 342°
2026-04-29 14:39 27.32466 33.74965 4554 ft 265 kts 316°
2026-04-29 14:39 27.33405 33.73204 5169 ft 269 kts 282°
2026-04-29 14:39 27.33370 33.71098 5818 ft 274 kts 259°
2026-04-29 14:39 27.32833 33.69029 6484 ft 277 kts 251°
2026-04-29 14:40 27.32121 33.66996 7147 ft 281 kts 249°
2026-04-29 14:40 27.31374 33.64951 7771 ft 285 kts 249°
2026-04-29 14:40 27.30642 33.62872 7978 ft 287 kts 250°
2026-04-29 14:40 27.29945 33.60770 7999 ft 286 kts 251°
2026-04-29 14:41 27.29285 33.58666 8002 ft 286 kts 252°
2026-04-29 14:41 27.28645 33.56553 8007 ft 285 kts 252°
2026-04-29 14:41 27.28016 33.54437 8009 ft 285 kts 253°
2026-04-29 14:41 27.27390 33.52321 8005 ft 285 kts 253°
2026-04-29 14:42 27.26775 33.50233 8001 ft 285 kts 253°
2026-04-29 14:42 27.26152 33.48118 8017 ft 286 kts 253°
2026-04-29 14:42 27.25524 33.45988 8574 ft 288 kts 253°
2026-04-29 14:42 27.24891 33.43844 9231 ft 290 kts 253°
2026-04-29 14:43 27.24254 33.41683 9861 ft 292 kts 253°
2026-04-29 14:43 27.23604 33.39481 10241 ft 306 kts 253°
2026-04-29 14:43 27.22914 33.37142 10384 ft 326 kts 253°
2026-04-29 14:43 27.22214 33.34643 10612 ft 341 kts 258°
2026-04-29 14:44 27.21899 33.32001 11135 ft 344 kts 270°
2026-04-29 14:44 27.22038 33.29322 11712 ft 344 kts 277°
2026-04-29 14:44 27.22265 33.26639 12334 ft 346 kts 276°
2026-04-29 14:44 27.22489 33.23937 12920 ft 349 kts 276°
2026-04-29 14:45 27.22711 33.21219 13521 ft 350 kts 276°
2026-04-29 14:45 27.22931 33.18499 14159 ft 350 kts 276°
2026-04-29 14:45 27.23151 33.15772 14760 ft 351 kts 277°
2026-04-29 14:45 27.23374 33.13038 15341 ft 352 kts 277°
2026-04-29 14:46 27.23596 33.10298 15917 ft 352 kts 277°
2026-04-29 14:46 27.23820 33.07552 16466 ft 353 kts 277°
2026-04-29 14:46 27.24042 33.04834 16994 ft 355 kts 277°
2026-04-29 14:46 27.24269 33.02035 17537 ft 355 kts 277°
2026-04-29 14:47 27.24492 32.99267 18057 ft 356 kts 277°
2026-04-29 14:47 27.24715 32.96501 18551 ft 357 kts 277°
2026-04-29 14:47 27.24940 32.93719 19023 ft 358 kts 277°
2026-04-29 14:47 27.25165 32.90927 19493 ft 359 kts 277°
2026-04-29 14:48 27.25384 32.88163 19937 ft 360 kts 277°
2026-04-29 14:48 27.25604 32.85352 20379 ft 362 kts 277°
2026-04-29 14:48 27.25826 32.82533 20821 ft 362 kts 277°
2026-04-29 14:48 27.26047 32.79709 21251 ft 363 kts 277°
2026-04-29 14:49 27.26270 32.76878 21660 ft 364 kts 277°
2026-04-29 14:49 27.26495 32.74040 22067 ft 365 kts 277°
2026-04-29 14:49 27.26720 32.71195 22466 ft 366 kts 277°
2026-04-29 14:49 27.26947 32.68341 22852 ft 367 kts 277°
2026-04-29 14:50 27.27174 32.65482 23217 ft 368 kts 276°
2026-04-29 14:50 27.27401 32.62618 23566 ft 369 kts 276°
2026-04-29 14:50 27.27627 32.59739 23926 ft 370 kts 276°
2026-04-29 14:50 27.27852 32.56855 24274 ft 371 kts 276°
2026-04-29 14:51 27.28074 32.53963 24582 ft 372 kts 276°
2026-04-29 14:51 27.28298 32.51056 24883 ft 374 kts 276°
2026-04-29 14:51 27.28524 32.48139 25178 ft 375 kts 276°
2026-04-29 14:51 27.28751 32.45210 25463 ft 377 kts 276°
2026-04-29 14:52 27.28977 32.42268 25745 ft 379 kts 276°
2026-04-29 14:52 27.29201 32.39312 26019 ft 380 kts 276°
2026-04-29 14:52 27.29423 32.36344 26308 ft 382 kts 276°
2026-04-29 14:52 27.29646 32.33367 26591 ft 383 kts 277°
2026-04-29 14:53 27.30060 32.30415 26849 ft 383 kts 286°
2026-04-29 14:53 27.30983 32.27611 27104 ft 384 kts 295°
2026-04-29 14:53 27.32387 32.25048 27360 ft 387 kts 305°
2026-04-29 14:53 27.34042 32.22645 27616 ft 389 kts 305°
2026-04-29 14:54 27.35700 32.20239 27870 ft 390 kts 305°
2026-04-29 14:54 27.37362 32.17819 28121 ft 391 kts 305°
2026-04-29 14:54 27.39024 32.15390 28362 ft 392 kts 305°
2026-04-29 14:54 27.40689 32.12950 28588 ft 394 kts 305°
2026-04-29 14:55 27.42336 32.10537 28806 ft 394 kts 305°
2026-04-29 14:55 27.44010 32.08088 29026 ft 395 kts 305°
2026-04-29 14:55 27.45690 32.05633 29239 ft 396 kts 306°
2026-04-29 14:55 27.47375 32.03173 29450 ft 397 kts 306°
2026-04-29 14:56 27.49062 32.00706 29661 ft 398 kts 305°
2026-04-29 14:56 27.50739 31.98245 29978 ft 396 kts 306°
2026-04-29 14:56 27.52410 31.95792 30312 ft 394 kts 306°
2026-04-29 14:56 27.54080 31.93344 30588 ft 393 kts 306°
2026-04-29 14:57 27.55739 31.90911 30842 ft 392 kts 305°
2026-04-29 14:57 27.57400 31.88473 31090 ft 392 kts 305°
2026-04-29 14:57 27.59058 31.86035 31328 ft 391 kts 305°
2026-04-29 14:57 27.60711 31.83597 31559 ft 391 kts 305°
2026-04-29 14:58 27.62363 31.81160 31799 ft 391 kts 304°
2026-04-29 14:58 27.64017 31.78725 32024 ft 391 kts 304°
2026-04-29 14:58 27.65669 31.76296 32275 ft 390 kts 304°
2026-04-29 14:58 27.67318 31.73870 32505 ft 389 kts 304°
2026-04-29 14:59 27.68964 31.71443 32720 ft 389 kts 304°
2026-04-29 14:59 27.70608 31.69016 32945 ft 389 kts 304°
2026-04-29 14:59 27.72251 31.66590 33162 ft 389 kts 304°
2026-04-29 14:59 27.73890 31.64170 33367 ft 389 kts 304°
2026-04-29 15:00 27.75533 31.61748 33577 ft 388 kts 304°
2026-04-29 15:00 27.77151 31.59359 33794 ft 388 kts 304°
2026-04-29 15:00 27.78810 31.56907 33971 ft 388 kts 303°
2026-04-29 15:01 27.82051 31.52113 34018 ft 385 kts 303°
2026-04-29 15:01 27.85292 31.47302 34016 ft 384 kts 303°
2026-04-29 15:02 27.88529 31.42493 34020 ft 385 kts 304°
2026-04-29 15:02 27.91767 31.37674 34046 ft 385 kts 304°
2026-04-29 15:03 27.95012 31.32846 34031 ft 385 kts 304°
2026-04-29 15:03 27.98257 31.28022 34037 ft 385 kts 304°
2026-04-29 15:04 28.01502 31.23195 34023 ft 385 kts 304°
2026-04-29 15:04 28.04740 31.18366 34027 ft 385 kts 304°
2026-04-29 15:05 28.07948 31.13523 34022 ft 384 kts 302°
2026-04-29 15:05 28.10949 31.08523 34024 ft 383 kts 301°
2026-04-29 15:06 28.13855 31.03456 34016 ft 384 kts 300°
2026-04-29 15:06 28.16794 30.98399 34021 ft 384 kts 301°
2026-04-29 15:07 28.19748 30.93393 34022 ft 385 kts 301°
2026-04-29 15:07 28.22742 30.88316 34027 ft 385 kts 301°
2026-04-29 15:08 28.25695 30.83290 34027 ft 386 kts 301°
2026-04-29 15:08 28.28669 30.78220 34029 ft 386 kts 301°
2026-04-29 15:09 28.31645 30.73145 34036 ft 386 kts 301°
2026-04-29 15:09 28.34616 30.68068 34033 ft 387 kts 301°
2026-04-29 15:10 28.37594 30.62979 34034 ft 387 kts 301°
2026-04-29 15:10 28.40570 30.57878 34033 ft 387 kts 301°
2026-04-29 15:11 28.43546 30.52770 34029 ft 388 kts 301°
2026-04-29 15:11 28.46530 30.47656 34025 ft 389 kts 301°
2026-04-29 15:12 28.49517 30.42531 34025 ft 389 kts 301°
2026-04-29 15:12 28.52497 30.37406 34029 ft 389 kts 301°
2026-04-29 15:13 28.55473 30.32270 34025 ft 389 kts 301°
2026-04-29 15:13 28.58450 30.27132 34031 ft 389 kts 301°
2026-04-29 15:14 28.61427 30.21992 34031 ft 389 kts 300°
2026-04-29 15:14 28.64386 30.16883 34028 ft 389 kts 301°
2026-04-29 15:15 28.67364 30.11741 34027 ft 389 kts 300°
2026-04-29 15:15 28.70331 30.06591 34018 ft 389 kts 300°
2026-04-29 15:16 28.73294 30.01448 34021 ft 388 kts 300°
2026-04-29 15:16 28.76256 29.96302 34019 ft 388 kts 300°
2026-04-29 15:17 28.79217 29.91149 34022 ft 389 kts 300°
2026-04-29 15:17 28.81702 29.86824 34019 ft 389 kts 300°
2026-04-29 15:18 28.84639 29.81704 34023 ft 388 kts 300°
2026-04-29 15:18 28.87595 29.76544 34021 ft 388 kts 300°
2026-04-29 15:19 28.90550 29.71386 34025 ft 388 kts 300°
2026-04-29 15:19 28.93497 29.66228 34027 ft 387 kts 300°
2026-04-29 15:20 28.96440 29.61076 34022 ft 387 kts 300°
2026-04-29 15:20 28.99379 29.55924 34024 ft 387 kts 300°
2026-04-29 15:21 29.02310 29.50764 34024 ft 387 kts 300°
2026-04-29 15:21 29.05240 29.45613 34027 ft 387 kts 300°
2026-04-29 15:22 29.08164 29.40458 34020 ft 386 kts 300°
2026-04-29 15:22 29.11086 29.35313 34017 ft 386 kts 302°
2026-04-29 15:23 29.14843 29.30890 34020 ft 394 kts 318°
2026-04-29 15:23 29.19198 29.27152 34020 ft 394 kts 318°
2026-04-29 15:24 29.23566 29.23372 34018 ft 394 kts 318°
2026-04-29 15:24 29.27929 29.19576 34022 ft 394 kts 318°
2026-04-29 15:25 29.32293 29.15785 34025 ft 394 kts 318°
2026-04-29 15:25 29.36657 29.11996 34028 ft 393 kts 318°
2026-04-29 15:26 29.41012 29.08201 34020 ft 393 kts 318°
2026-04-29 15:26 29.45360 29.04405 34024 ft 392 kts 318°
2026-04-29 15:27 29.49694 29.00606 34025 ft 392 kts 318°
2026-04-29 15:27 29.54034 28.96810 34031 ft 392 kts 318°